PFF232 EPKK-ENVA

Flight info

Callsign PFF232
Flight time 2h 14m
Altitude 38000
Route NAVUR DCT PENOR DCT OSKOK DCT VEVOD
Aircraft A20N/M-SDE2E3FGHIRWXY/LB1

Departure

Time 2026-05-04 07:35
Airport Kraków John Paul II International Airport (EPKK)

Arrival

Time 2026-05-04 09:49
Airport Trondheim Airport, Værnes (ENVA)
Time Latitude Longitude Altitude Speed Heading
2026-05-04 07:12 50.07582 19.80097 790 ft 0 kts 348°
2026-05-04 07:33 50.07645 19.80220 790 ft 8 kts 78°
2026-05-04 07:33 50.07659 19.80322 790 ft 11 kts 77°
2026-05-04 07:33 50.07717 19.80382 790 ft 12 kts 349°
2026-05-04 07:33 50.07806 19.80350 790 ft 14 kts 347°
2026-05-04 07:34 50.07911 19.80314 790 ft 17 kts 347°
2026-05-04 07:34 50.08006 19.80255 789 ft 11 kts 309°
2026-05-04 07:34 50.08006 19.80139 790 ft 12 kts 257°
2026-05-04 07:34 50.07973 19.79911 789 ft 49 kts 258°
2026-05-04 07:35 50.07850 19.79019 791 ft 116 kts 257°
2026-05-04 07:35 50.07645 19.77534 904 ft 153 kts 258°
2026-05-04 07:35 50.07440 19.75962 1569 ft 150 kts 257°
2026-05-04 07:35 50.07205 19.74388 2225 ft 149 kts 255°
2026-05-04 07:36 50.06967 19.72790 2786 ft 158 kts 254°
2026-05-04 07:36 50.06710 19.71042 3285 ft 173 kts 254°
2026-05-04 07:38 50.13796 19.61675 7762 ft 290 kts 12°
2026-05-04 07:38 50.15635 19.62999 7978 ft 294 kts 36°
2026-05-04 07:38 50.17382 19.64661 8207 ft 296 kts 18°
2026-05-04 07:38 50.19389 19.65393 8979 ft 296 kts
2026-05-04 07:39 50.21415 19.65963 9996 ft 297 kts
2026-05-04 07:39 50.23486 19.66537 10609 ft 312 kts
2026-05-04 07:39 50.25707 19.67177 10877 ft 337 kts
2026-05-04 07:39 50.28071 19.67889 11315 ft 353 kts
2026-05-04 07:40 50.30492 19.68641 12129 ft 357 kts
2026-05-04 07:40 50.32950 19.69415 12930 ft 362 kts
2026-05-04 07:40 50.35430 19.70195 13703 ft 367 kts
2026-05-04 07:40 50.37949 19.70985 14414 ft 371 kts
2026-05-04 07:41 50.40493 19.71783 15150 ft 374 kts
2026-05-04 07:41 50.43058 19.72587 15841 ft 378 kts
2026-05-04 07:41 50.45650 19.73401 16566 ft 381 kts
2026-05-04 07:41 50.48264 19.74222 17245 ft 385 kts
2026-05-04 07:42 50.50908 19.75054 17919 ft 389 kts
2026-05-04 07:42 50.53575 19.75894 18613 ft 391 kts
2026-05-04 07:42 50.56224 19.76730 19191 ft 395 kts
2026-05-04 07:42 50.58961 19.77595 19818 ft 397 kts
2026-05-04 07:43 50.61637 19.78442 20487 ft 398 kts
2026-05-04 07:43 50.64367 19.79307 21072 ft 402 kts
2026-05-04 07:43 50.67113 19.80178 21673 ft 404 kts
2026-05-04 07:43 50.69872 19.81053 22318 ft 405 kts
2026-05-04 07:44 50.72650 19.81936 22880 ft 409 kts
2026-05-04 07:44 50.75450 19.82828 23477 ft 411 kts
2026-05-04 07:44 50.78260 19.83722 24014 ft 413 kts
2026-05-04 07:44 50.81081 19.84623 24474 ft 416 kts
2026-05-04 07:45 50.83926 19.85531 24922 ft 419 kts
2026-05-04 07:45 50.86792 19.86447 25376 ft 421 kts
2026-05-04 07:45 50.89671 19.87371 25838 ft 423 kts
2026-05-04 07:45 50.92567 19.88299 26296 ft 425 kts 10°
2026-05-04 07:46 50.95471 19.89232 26728 ft 428 kts 10°
2026-05-04 07:46 50.98404 19.90072 27137 ft 428 kts
2026-05-04 07:46 51.01382 19.90170 27540 ft 429 kts 354°
2026-05-04 07:46 51.04329 19.89423 27937 ft 428 kts 343°
2026-05-04 07:47 51.07173 19.87989 28313 ft 430 kts 339°
2026-05-04 07:47 51.10014 19.86472 28677 ft 433 kts 339°
2026-05-04 07:47 51.12884 19.84943 28981 ft 436 kts 339°
2026-05-04 07:49 51.33379 19.73981 31259 ft 450 kts 339°
2026-05-04 07:49 51.36391 19.72359 31631 ft 450 kts 339°
2026-05-04 07:49 51.39348 19.70767 32098 ft 448 kts 339°
2026-05-04 07:50 51.42304 19.69171 32460 ft 447 kts 339°
2026-05-04 07:50 51.45210 19.67599 32819 ft 447 kts 339°
2026-05-04 07:50 51.48194 19.65985 33235 ft 445 kts 339°
2026-05-04 07:50 51.51122 19.64397 33621 ft 444 kts 339°
2026-05-04 07:51 51.54008 19.62830 33980 ft 443 kts 339°
2026-05-04 07:51 51.56926 19.61243 34241 ft 444 kts 339°
2026-05-04 07:51 51.59896 19.59626 34448 ft 445 kts 339°
2026-05-04 07:51 51.62822 19.58031 34709 ft 445 kts 339°
2026-05-04 07:52 51.65713 19.56452 34981 ft 444 kts 339°
2026-05-04 07:52 51.68635 19.54855 35247 ft 444 kts 339°
2026-05-04 07:52 51.71465 19.53305 35497 ft 443 kts 339°
2026-05-04 07:52 51.74382 19.51706 35750 ft 443 kts 339°
2026-05-04 07:53 51.77291 19.50109 35985 ft 442 kts 339°
2026-05-04 07:54 51.97612 19.38895 37480 ft 439 kts 339°
2026-05-04 07:55 52.00506 19.37288 37657 ft 439 kts 339°
2026-05-04 07:55 52.03392 19.35684 37843 ft 439 kts 339°
2026-05-04 07:55 52.06280 19.34077 37980 ft 439 kts 339°
2026-05-04 07:55 52.09168 19.32468 37986 ft 438 kts 339°
2026-05-04 07:56 52.14927 19.29252 37992 ft 438 kts 339°
2026-05-04 07:56 52.20685 19.26027 37991 ft 438 kts 339°
2026-05-04 07:57 52.26450 19.22792 37987 ft 438 kts 339°
2026-05-04 07:57 52.32207 19.19550 37970 ft 438 kts 339°
2026-05-04 07:58 52.37869 19.16355 37954 ft 439 kts 338°
2026-05-04 07:58 52.43644 19.13085 37976 ft 439 kts 338°
2026-05-04 07:59 52.49424 19.09804 37967 ft 440 kts 338°
2026-05-04 07:59 52.55212 19.06509 37968 ft 440 kts 338°
2026-05-04 08:00 52.61007 19.03201 37968 ft 441 kts 338°
2026-05-04 08:02 52.84123 18.89914 37963 ft 443 kts 337°
2026-05-04 08:02 52.89937 18.86546 37961 ft 443 kts 337°
2026-05-04 08:03 52.95757 18.83167 37963 ft 443 kts 337°
2026-05-04 08:03 53.01583 18.79774 37966 ft 444 kts 337°
2026-05-04 08:04 53.07410 18.76372 37960 ft 444 kts 337°
2026-05-04 08:04 53.13236 18.72960 37960 ft 444 kts 337°
2026-05-04 08:05 53.19069 18.69536 37972 ft 444 kts 336°
2026-05-04 08:05 53.24895 18.66106 37960 ft 444 kts 336°
2026-05-04 08:06 53.30724 18.62663 37961 ft 444 kts 336°
2026-05-04 08:06 53.36546 18.59214 37951 ft 444 kts 336°
2026-05-04 08:08 53.58836 18.45916 37926 ft 444 kts 336°
2026-05-04 08:11 53.84894 18.30179 37908 ft 443 kts 336°
2026-05-04 08:11 53.93609 18.24870 37908 ft 444 kts 335°
2026-05-04 08:12 53.99425 18.21313 37906 ft 445 kts 335°
2026-05-04 08:12 54.05252 18.17741 37916 ft 445 kts 335°
2026-05-04 08:13 54.11071 18.14161 37913 ft 445 kts 335°
2026-05-04 08:13 54.16894 18.10568 37913 ft 446 kts 335°
2026-05-04 08:14 54.22682 18.06985 37911 ft 446 kts 335°
2026-05-04 08:16 54.45985 17.92456 37924 ft 446 kts 334°
2026-05-04 08:16 54.51809 17.88796 37901 ft 446 kts 334°
2026-05-04 08:17 54.57634 17.85126 37896 ft 446 kts 334°
2026-05-04 08:17 54.63461 17.81442 37896 ft 446 kts 334°
2026-05-04 08:19 54.86709 17.66634 37885 ft 445 kts 334°
2026-05-04 08:20 54.92488 17.62923 37878 ft 446 kts 334°
2026-05-04 08:20 54.98305 17.59179 37877 ft 446 kts 334°
2026-05-04 08:21 55.04127 17.55419 37892 ft 446 kts 334°
2026-05-04 08:21 55.09954 17.51644 37872 ft 447 kts 334°
2026-05-04 08:22 55.15779 17.47858 37870 ft 447 kts 334°
2026-05-04 08:24 55.39089 17.32588 37799 ft 450 kts 334°
2026-05-04 08:24 55.42018 17.30656 37514 ft 449 kts 334°
2026-05-04 08:24 55.44937 17.28729 37245 ft 448 kts 334°
2026-05-04 08:25 55.47855 17.26800 37140 ft 448 kts 334°
2026-05-04 08:25 55.50773 17.24868 37264 ft 449 kts 334°
2026-05-04 08:25 55.53703 17.22925 37415 ft 449 kts 334°
2026-05-04 08:25 55.56627 17.20983 37489 ft 449 kts 334°
2026-05-04 08:26 55.59542 17.19047 37310 ft 446 kts 334°
2026-05-04 08:27 55.80094 17.06388 36832 ft 452 kts 336°
2026-05-04 08:28 55.86049 17.02807 36857 ft 453 kts 335°
2026-05-04 08:28 55.89038 17.01001 37049 ft 453 kts 336°
2026-05-04 08:28 55.92022 16.99197 37265 ft 452 kts 336°
2026-05-04 08:29 55.95001 16.97393 37466 ft 453 kts 336°
2026-05-04 08:29 55.97987 16.95580 37604 ft 453 kts 336°
2026-05-04 08:29 56.00972 16.93766 37793 ft 453 kts 336°
2026-05-04 08:31 56.21798 16.81011 37815 ft 452 kts 336°
2026-05-04 08:33 56.45598 16.66249 37798 ft 453 kts 335°
2026-05-04 08:35 56.69090 16.51485 37806 ft 453 kts 335°
2026-05-04 08:35 56.75040 16.47714 37809 ft 453 kts 335°
2026-05-04 08:37 56.95823 16.34444 37788 ft 451 kts 335°
2026-05-04 08:38 57.01744 16.30635 37777 ft 451 kts 335°
2026-05-04 08:38 57.07659 16.26816 37773 ft 450 kts 335°
2026-05-04 08:40 57.31293 16.11427 37773 ft 451 kts 335°
2026-05-04 08:41 57.37046 16.07650 37770 ft 451 kts 335°
2026-05-04 08:41 57.42960 16.03754 37767 ft 451 kts 335°
2026-05-04 08:42 57.48871 15.99846 37761 ft 451 kts 335°
2026-05-04 08:42 57.54745 15.95950 37759 ft 451 kts 334°
2026-05-04 08:43 57.60666 15.92010 37756 ft 452 kts 334°
2026-05-04 08:43 57.66582 15.88058 37772 ft 452 kts 334°
2026-05-04 08:44 57.72348 15.84193 37747 ft 452 kts 334°
2026-05-04 08:46 57.96080 15.68148 37774 ft 454 kts 334°
2026-05-04 08:46 58.01860 15.64206 37773 ft 454 kts 334°
2026-05-04 08:47 58.07798 15.60142 37794 ft 454 kts 334°
2026-05-04 08:47 58.13743 15.56058 37767 ft 454 kts 334°
2026-05-04 08:48 58.19489 15.52098 37767 ft 455 kts 334°
2026-05-04 08:48 58.25424 15.47994 37764 ft 454 kts 334°
2026-05-04 08:49 58.31354 15.43878 37762 ft 453 kts 334°
2026-05-04 08:50 58.52147 15.29327 37754 ft 454 kts 334°
2026-05-04 08:51 58.58078 15.25143 37756 ft 454 kts 334°
2026-05-04 08:51 58.63991 15.20957 37766 ft 453 kts 334°
2026-05-04 08:52 58.69788 15.16837 37741 ft 452 kts 334°
2026-05-04 08:52 58.75793 15.12555 37736 ft 452 kts 334°
2026-05-04 08:54 58.99299 14.95637 37720 ft 450 kts 333°
2026-05-04 08:55 59.05168 14.91376 37729 ft 451 kts 333°
2026-05-04 08:55 59.11040 14.87095 37726 ft 451 kts 333°
2026-05-04 09:01 59.71319 14.42231 37740 ft 454 kts 333°
2026-05-04 09:01 59.77220 14.37746 37733 ft 454 kts 333°
2026-05-04 09:02 59.83113 14.33250 37729 ft 453 kts 333°
2026-05-04 09:02 59.88997 14.28743 37721 ft 453 kts 333°
2026-05-04 09:03 59.94880 14.24220 37719 ft 453 kts 333°
2026-05-04 09:03 60.00754 14.19686 37709 ft 453 kts 333°
2026-05-04 09:04 60.06634 14.15131 37706 ft 453 kts 333°
2026-05-04 09:04 60.12498 14.10571 37709 ft 452 kts 332°
2026-05-04 09:05 60.18363 14.05993 37700 ft 452 kts 332°
2026-05-04 09:05 60.24224 14.01400 37697 ft 452 kts 332°
2026-05-04 09:06 60.30085 13.96789 37688 ft 452 kts 332°
2026-05-04 09:08 60.52512 13.78981 37669 ft 453 kts 332°
2026-05-04 09:08 60.58376 13.74281 37680 ft 453 kts 332°
2026-05-04 09:09 60.64232 13.69568 37720 ft 453 kts 332°
2026-05-04 09:09 60.70107 13.64821 37668 ft 454 kts 332°
2026-05-04 09:10 60.75988 13.60052 37670 ft 455 kts 332°
2026-05-04 09:10 60.81873 13.55261 37670 ft 455 kts 332°
2026-05-04 09:11 60.87754 13.50454 37672 ft 455 kts 332°
2026-05-04 09:11 60.93639 13.45624 37662 ft 455 kts 332°
2026-05-04 09:12 60.99523 13.40775 37662 ft 456 kts 332°
2026-05-04 09:14 61.23050 13.21192 37659 ft 456 kts 332°
2026-05-04 09:14 61.28918 13.16259 37684 ft 456 kts 332°
2026-05-04 09:15 61.34755 13.11332 37650 ft 456 kts 331°
2026-05-04 09:15 61.40637 13.06347 37647 ft 456 kts 331°
2026-05-04 09:17 61.67007 12.83742 37629 ft 456 kts 331°
2026-05-04 09:18 61.72873 12.78657 37622 ft 456 kts 331°
2026-05-04 09:18 61.78732 12.73558 37622 ft 456 kts 331°
2026-05-04 09:19 61.84596 12.68433 37618 ft 456 kts 331°
2026-05-04 09:19 61.90456 12.63289 37625 ft 456 kts 331°
2026-05-04 09:20 61.96319 12.58122 37649 ft 457 kts 331°
2026-05-04 09:20 62.02195 12.52919 37634 ft 457 kts 331°
2026-05-04 09:21 62.08069 12.47707 37644 ft 457 kts 331°
2026-05-04 09:21 62.13946 12.42473 37662 ft 457 kts 331°
2026-05-04 09:22 62.19788 12.37245 37658 ft 460 kts 332°
2026-05-04 09:22 62.25777 12.31862 37666 ft 464 kts 332°
2026-05-04 09:23 62.31499 12.25883 37607 ft 456 kts 323°
2026-05-04 09:23 62.34096 12.22077 37215 ft 451 kts 317°
2026-05-04 09:23 62.36488 12.17743 36577 ft 449 kts 313°
2026-05-04 09:25 62.52767 11.87186 32518 ft 427 kts 311°
2026-05-04 09:25 62.54990 11.82974 32067 ft 421 kts 311°
2026-05-04 09:26 62.57177 11.78823 31562 ft 415 kts 310°
2026-05-04 09:26 62.59336 11.74717 31013 ft 410 kts 309°
2026-05-04 09:26 62.61467 11.70657 30529 ft 405 kts 309°
2026-05-04 09:26 62.63571 11.66636 30045 ft 400 kts 308°
2026-05-04 09:27 62.65648 11.62654 29619 ft 396 kts 308°
2026-05-04 09:27 62.67697 11.58715 29026 ft 391 kts 308°
2026-05-04 09:27 62.69718 11.54819 28474 ft 387 kts 308°
2026-05-04 09:27 62.71726 11.50941 27925 ft 384 kts 307°
2026-05-04 09:28 62.73714 11.47095 27374 ft 380 kts 307°
2026-05-04 09:28 62.75679 11.43288 26848 ft 377 kts 307°
2026-05-04 09:28 62.77602 11.39554 26324 ft 373 kts 307°
2026-05-04 09:28 62.79526 11.35815 25813 ft 368 kts 307°
2026-05-04 09:29 62.81428 11.32111 25308 ft 364 kts 307°
2026-05-04 09:29 62.83305 11.28451 24813 ft 359 kts 307°
2026-05-04 09:29 62.84904 11.24495 24349 ft 335 kts 290°
2026-05-04 09:29 62.85709 11.19928 23914 ft 314 kts 272°
2026-05-04 09:30 62.85649 11.15300 23453 ft 300 kts 252°
2026-05-04 09:30 62.84764 11.11263 22914 ft 295 kts 234°
2026-05-04 09:30 62.83424 11.07890 22333 ft 294 kts 228°
2026-05-04 09:30 62.81986 11.04719 21777 ft 293 kts 227°
2026-05-04 09:31 62.80528 11.01594 21226 ft 293 kts 226°
2026-05-04 09:31 62.78990 10.98666 20677 ft 295 kts 216°
2026-05-04 09:31 62.77056 10.97062 20165 ft 306 kts 193°
2026-05-04 09:31 62.74927 10.97460 20004 ft 312 kts 169°
2026-05-04 09:32 62.73027 10.99774 19871 ft 318 kts 146°
2026-05-04 09:32 62.71690 11.03631 19761 ft 323 kts 121°
2026-05-04 09:34 62.79880 11.25463 16228 ft 333 kts
2026-05-04 09:34 62.82180 11.26417 15537 ft 340 kts
2026-05-04 09:34 62.84517 11.27460 14851 ft 346 kts
2026-05-04 09:34 62.86890 11.28576 14153 ft 352 kts
2026-05-04 09:35 62.89302 11.29741 13416 ft 358 kts
2026-05-04 09:35 62.91723 11.30930 12950 ft 354 kts 10°
2026-05-04 09:35 62.94104 11.32108 12486 ft 348 kts
2026-05-04 09:35 62.96456 11.33272 12015 ft 345 kts
2026-05-04 09:37 63.11931 11.40988 9700 ft 295 kts
2026-05-04 09:37 63.13915 11.41978 9489 ft 288 kts
2026-05-04 09:38 63.15851 11.42940 9187 ft 284 kts
2026-05-04 09:38 63.17767 11.43890 8830 ft 280 kts
2026-05-04 09:38 63.19656 11.44828 8482 ft 277 kts
2026-05-04 09:38 63.21528 11.45763 8130 ft 273 kts
2026-05-04 09:39 63.23366 11.46686 7791 ft 269 kts
2026-05-04 09:39 63.25180 11.47593 7447 ft 266 kts
2026-05-04 09:39 63.26977 11.48493 7102 ft 263 kts
2026-05-04 09:39 63.28755 11.49383 6763 ft 262 kts
2026-05-04 09:40 63.30521 11.50268 6411 ft 258 kts
2026-05-04 09:40 63.32258 11.51143 6079 ft 254 kts
2026-05-04 09:40 63.33975 11.52008 5895 ft 251 kts
2026-05-04 09:40 63.35772 11.52893 5925 ft 268 kts
2026-05-04 09:41 63.37553 11.53716 5935 ft 252 kts 360°
2026-05-04 09:42 63.45621 11.43750 4737 ft 178 kts 273°
2026-05-04 09:43 63.45667 11.40975 4609 ft 180 kts 269°
2026-05-04 09:43 63.45667 11.38189 4497 ft 177 kts 269°
2026-05-04 09:43 63.45672 11.35475 4283 ft 172 kts 269°
2026-05-04 09:43 63.45677 11.32861 4036 ft 169 kts 269°
2026-05-04 09:44 63.45683 11.30261 3828 ft 161 kts 269°
2026-05-04 09:44 63.45688 11.27839 3574 ft 155 kts 269°
2026-05-04 09:44 63.45692 11.25474 3331 ft 150 kts 269°
2026-05-04 09:46 63.45730 11.11382 1938 ft 113 kts 268°
2026-05-04 09:46 63.45735 11.09600 1735 ft 112 kts 269°
2026-05-04 09:46 63.45723 11.07916 1556 ft 107 kts 269°
2026-05-04 09:47 63.45732 11.06225 1373 ft 109 kts 269°
2026-05-04 09:47 63.45733 11.04548 1190 ft 107 kts 269°
2026-05-04 09:49 63.45755 10.92453 53 ft 107 kts 268°
2026-05-04 09:49 63.45762 10.91592 47 ft 54 kts 270°
2026-05-04 09:49 63.45761 10.90984 42 ft 29 kts 270°
2026-05-04 09:51 63.45597 10.91060 42 ft 12 kts 89°
2026-05-04 09:51 63.45597 10.91084 42 ft 1 kts 90°
2026-05-04 09:51 63.45597 10.91122 42 ft 4 kts 90°
2026-05-04 09:51 63.45597 10.91220 43 ft 11 kts 90°
2026-05-04 09:52 63.45597 10.91418 45 ft 12 kts 89°
2026-05-04 09:52 63.45597 10.91458 45 ft 0 kts 90°
2026-05-04 09:52 63.45591 10.91470 43 ft 3 kts 133°
2026-05-04 09:52 63.45557 10.91546 46 ft 11 kts 156°
2026-05-04 09:53 63.45501 10.91557 46 ft 0 kts 175°